Regional Weather Roundup
Issued by NWS

Home | Current Version | Previous Version | Text Only | Print | Product List | Glossary On
Versions: 1 2 3 4 5 6 7 8 9 10 11 12 13 14 15 16 17 18 19 20 21 22 23 24 25 26 27 28 29 30 31 32 33 34 35 36 37 38 39 40 41 42 43 44 45 46 47 48 49 50
000
ASUS42 KTBW 281610
RWRFL
FLORIDA REGIONAL WEATHER ROUNDUP
NATIONAL WEATHER SERVICE TAMPA BAY RUSKIN FL
1100 AM EST SAT FEB 28 2015

NOTE: "FAIR" INDICATES FEW OR NO CLOUDS BELOW 12,000 FEET WITH NO
SIGNIFICANT WEATHER AND/OR OBSTRUCTIONS TO VISIBILITY.


FLZ001>010-012>015-112-114-115-281700-
PANHANDLE FLORIDA

CITY           SKY/WX    TMP DP  RH WIND       PRES   REMARKS
PENSACOLA      CLOUDY    51  35  54 NE9       30.43S
PENSACOLA NAS  PTSUNNY   53  37  54 NE15      30.43S
MILTON NAS     PTSUNNY   51  35  54 NE10      30.45S
CRESTVIEW      CLOUDY    53  38  56 E8        30.47R
DUKE FIELD     CLOUDY    50  37  59 NE8       30.43S
VALPARAISO     CLOUDY    50  37  61 NE10      30.43S
MARY ESTHER    CLOUDY    50  33  52 NE10      30.42S
TRI COUNTY     CLOUDY    49  38  65 NE7       30.47F
PANAMA CITY    CLOUDY    49  41  74 N8        30.43S
TYNDALL AFB    CLOUDY    51  45  79 NE13      30.42S
APALACHICOLA   CLOUDY    54  44  69 NE14      30.41F

STATION/POSITION SKY/WX   TEMP    WIND        PRES    WAVE   SWELL
                          AIR SEA DIR/SP/G            HT/PER HT/PER
                          (F)     (DEG/KT/KT) (MB)    (FT/S) (FT/S)
30.1N   87.6W              50 62   60/ 17/ 21 1029.2F   5/ 7
29.2N   88.2W              60 70   70/ 14/ 17 1029.0R   6/ 7   5/ 7
28.7N   86.0W              59 67   60/ 16/ 21 1028.4R   6/ 6
PANAMA CITY BEAC           49 56   50/  8/ 14 1030.2R
CAPE SAN BLAS    NOT AVBL
TOWER C                    53      50/ 23/ 25 1028.8S
28.5N   84.5W              60 65   60/ 19/ 23 1027.3R   6/ 6

$$
FLZ011-016>038-118-127-128-134-139-239-281700-
NORTH FLORIDA

CITY           SKY/WX    TMP DP  RH WIND       PRES   REMARKS
MARIANNA       CLOUDY    48  41  76 NE13      30.46F WCI  43
TALLAHASSEE    CLOUDY    50  46  86 NE8       30.46R
PERRY          CLOUDY    49  48  95 NE6       30.44S
CROSS CITY       N/A     54  50  86 NE7       30.42R
LAKE CITY      LGT RAIN  50  48  93 NE9       30.43S
GAINESVILLE    CLOUDY    58  55  90 NE10      30.41S
MAYPORT NAS    CLOUDY    54  51  90 N17G25    30.45R FOG
JACKSONVILLE   CLOUDY    52  52 100 NE13G28   30.47R FOG
JAX NAS        CLOUDY    58  52  80 N16       30.45R
JAX CRAIG      CLOUDY    55  51  86 NE16G23   30.45R
JAX CECIL      CLOUDY    55  54  94 NE14      30.45R FOG
FERNANDINA BEA CLOUDY    55  52  88 NE23G31   30.44F
ST AUGUSTINE   LGT RAIN  58  56  93 N10       30.42R FOG

STATION/POSITION SKY/WX   TEMP    WIND        PRES    WAVE   SWELL
                          AIR SEA DIR/SP/G            HT/PER HT/PER
                          (F)     (DEG/KT/KT) (MB)    (FT/S) (FT/S)
SHELL POINT      NOT AVBL
KEATON BEACH               52      40/ 11/ 19 1029.9F
CEDAR KEY                  55      40/  9/ 12 1028.8R
FERNANDINA                 51 54   30/ 10/ 23 1031.2R
30.7N   81.3W                 52                N/A     6/ 7   2/11
MAYPORT                    54 55   20/ 17     1031.1R
31.4N   80.9W              49 51   40/ 27/ 35 1031.7R   9/ 7   2/10
ST AUGUSTINE               57     350/ 10/ 11 1030.3R

$$
FLZ040-043>046-052-053-057-058-063-144-281700-
INTERIOR CENTRAL FLORIDA

CITY           SKY/WX    TMP DP  RH WIND       PRES   REMARKS
OCALA          PTSUNNY   61  55  82 NE6       30.38S
THE VILLAGES     N/A     61  59  94 NE7       30.27F FOG
LEESBURG       CLOUDY    63  58  83 NE7       30.38R
SANFORD        CLOUDY    65  62  90 NE7       30.37R FOG
ORLANDO EXEC   CLOUDY    65  63  93 N8        30.37R FOG
ORLANDO INTL   LGT RAIN  68  65  90 NE14      30.36R
KISSIMMEE      LGT RAIN  66  64  94 NE10      30.36R FOG
WINTER HAVEN   LGT RAIN  66  64  93 NE12      30.34F FOG
LAKELAND       LGT RAIN  63  63 100 NE10      30.34R
BARTOW         CLOUDY    64  64 100 NE9       30.34R
OKEECHOBEE     DRIZZLE   70  68  94 NE7       30.32R

$$
FLZ041-047-054-059-064-141-147-281700-
EAST CENTRAL FLORIDA

CITY           SKY/WX    TMP DP  RH WIND       PRES   REMARKS
ORMOND BEACH   PTSUNNY   66  61  82 E8        30.39R FOG
DAYTONA BEACH  CLOUDY    68  61  78 E9        30.38S
DELAND         CLOUDY   N/A N/A N/A E6        30.39S
NEW SMYRNA BEA CLOUDY    68  61  77 E8G17     30.39R
JFK SPACE CTR  CLOUDY    67  62  85 E9        30.35R
TITUSVILLE     CLOUDY    66  64  94 E18       30.37R
CAPE CANAVERAL DRIZZLE   66  63  91 E13       30.35R FOG
PATRICK AFB    PTSUNNY   68  64  88 E16       30.34R
MELBOURNE      CLOUDY    69  65  86 E13       30.34R
VERO BEACH     CLOUDY    68  63  84 NE8       30.33R HAZE
FT PIERCE      CLOUDY    70  68  93 E9G18     30.31S

STATION/POSITION SKY/WX   TEMP    WIND        PRES    WAVE   SWELL
                          AIR SEA DIR/SP/G            HT/PER HT/PER
                          (F)     (DEG/KT/KT) (MB)    (FT/S) (FT/S)
28.5N   80.2W              69 69   70/ 23/ 27 1027.3R
28.9N   78.5W              69 71   70/ 23/ 29 1028.1R   9/ 8   5/11
TRIDENT PIER     NOT AVBL
28.4N   80.5W                 62                N/A     4/ 8   2/11
27.6N   80.2W                 71                N/A     8/ 7   2/11

$$
FLZ050-056-061-142-242-148-248-149-249-151-251-155-255-
160-260-281700-
WEST CENTRAL FLORIDA

CITY           SKY/WX    TMP DP  RH WIND       PRES   REMARKS
CRYSTAL RIVER  PTSUNNY   61  55  82 NE6       30.37R
INVERNESS      DRIZZLE   61  55  82 NE5       30.37S
BROOKSVILLE    LGT RAIN  62  59  90 NE8       30.37R
ZEPHYRHILLS    RAIN      61  61 100 CALM      30.35S
CLEARWATER     HVY RAIN  62  61  96 NE6       30.33S FOG
TAMPA INTL     LGT RAIN  63  60  90 NE8       30.33S FOG
TAMPA EXEC     RAIN      64  61  88 NE7       30.34S
PLANT CITY     DRIZZLE  N/A N/A N/A E8        30.35S
MACDILL AFB    HVY RAIN  61  61 100 NE10      30.32S FOG
PETER O KNIGHT RAIN      64  63  94 NE14      30.32S
ST PETERSBURG  TSTM      62  60  93 E8        30.32R FOG
SARASOTA       CLOUDY    67  62  84 E10       30.29S
VENICE         FAIR      72  66  83 NE16      30.30S

STATION/POSITION SKY/WX   TEMP    WIND        PRES    WAVE   SWELL
                          AIR SEA DIR/SP/G            HT/PER HT/PER
                          (F)     (DEG/KT/KT) (MB)    (FT/S) (FT/S)
CEDAR KEY                  55      40/  9/ 12 1028.8R
28.5N   84.5W              60 65   60/ 19/ 23 1027.3R   6/ 6
27.3N   84.3W                 69                N/A     6/ 7
CLEARWATER BEACH           62 61   60/  7/ 12 1026.7R
MIDDLE TAMPA BAY                   50/  9/ 10   N/A
VENICE                     70 62   70/ 13/ 17 1025.2S

$$
FLZ066-069-070-075>078-162-262-165-265-281700-
SOUTHWEST FLORIDA AND KEYS

CITY           SKY/WX    TMP DP  RH WIND       PRES   REMARKS
PUNTA GORDA    PTSUNNY   75  67  76 E10       30.30S
FT MYERS       PTSUNNY   77  68  73 E12       30.27S
SOUTHWEST INTL MOSUNNY   77  67  71 NE12      30.28S
NAPLES         CLOUDY    79  70  74 E10       30.26S
MARCO ISLAND   CLOUDY    81  70  69 E14       30.26S
IMMOKALEE      CLOUDY   N/A N/A N/A N8        30.29R
MARATHON       SUNNY     81  74  79 E10G17    30.24R
KEY WEST NAS   PTSUNNY   81  72  74 E13       30.25R
KEY WEST INTL  SUNNY     81  74  79 E10       30.25R

STATION/POSITION SKY/WX   TEMP    WIND        PRES    WAVE   SWELL
                          AIR SEA DIR/SP/G            HT/PER HT/PER
                          (F)     (DEG/KT/KT) (MB)    (FT/S) (FT/S)
VENICE                     70 62   70/ 13/ 17 1025.2S
NAPLES                     77 66   90/  6/  9 1024.7S
26.0N   85.6W              70 78   60/ 14/ 17 1025.1R   6/ 7   3/ 7
DRY TORTUGAS               68      50/ 11/ 12 1024.0R
SAND KEY                   75      70/  6/ 10 1024.3R
SOMBRERO KEY               75      90/ 10/ 11 1024.7R
LONG KEY                   76 76   80/ 11/ 13 1024.7R
MOLASSES REEF              77 75  110/ 14/ 16 1024.2R

$$
FLZ067-068-071>074-168-172>174-281700-
SOUTHEAST FLORIDA

CITY           SKY/WX    TMP DP  RH WIND       PRES   REMARKS
W PALM BEACH   PTSUNNY   77  70  79 E18       30.27S
FT LAUDER-EXEC LGT RAIN  75  74  96 E7        30.26S
FT LAUDERDALE  LGT RAIN  70  70 100 E14       30.26F
POMPANO BEACH  LGT RAIN  76  71  85 E14       30.26F
PEMBROKE PINES HVY RAIN  73  69  87 SE16G28   30.28S FOG
OPA LOCKA      TSTM      73  68  84 NE10      30.28S VSB 1
MIAMI          CLOUDY    79  70  74 VRB7      30.27R
WEST KENDALL   PTSUNNY   79  72  79 SE14      30.26S
HOMESTEAD      MOSUNNY   80  72  77 E12G18    30.25S

STATION/POSITION SKY/WX   TEMP    WIND        PRES    WAVE   SWELL
                          AIR SEA DIR/SP/G            HT/PER HT/PER
                          (F)     (DEG/KT/KT) (MB)    (FT/S) (FT/S)
PORT EVERGLADES            71     130/ 10/ 14 1025.0
VIRGINIA KEY               76 74  110/ 12/ 15 1024.3F
LAKE WORTH                 75 73  100/ 16/ 19 1025.0F
SETTLEMENT POINT           73      80/ 18/ 23 1026.6R

$$




USA.gov is the U.S. government's official web portal to all federal, state and local government web resources and services.